User: anonymous   Login
Location: ??
(34.9170°N, 135.5016°E)
Time: 19:32:07
(UTC+00:00)
Language:

Explorer 7 - Orbit

View from above orbital plane
View from above orbital plane
View from above satellite
View from above satellite

Ground track
Ground track

The orbit data is extracted from the following two-line orbital elements,

1 00022U 59009A   21059.32801933  .00000231  00000-0  40195-4 0  9992
2 00022  50.2851 341.2581 0138793 156.5319 204.2043 14.95418786508654
Epoch (UTC): 28 February 2021 07:52:20
Eccentricity: 0.0138793
inclination: 50.2851°
perigee height: 484 km
apogee height: 677 km
right ascension of ascending node: 341.2581°
argument of perigee: 156.5319°
revolutions per day: 14.95418786
mean anomaly at epoch: 204.2043°
orbit number at epoch: 50865

The dashed part of the orbit path shows where the satellite is in the earth's shadow,  

DLR